Sulphur, LA

7:56 AM CDT on May 25, 2017 (GMT -0500)
Sulphur

Weather History for KUXL - March, 2014

Change the Weather History Date:

Wednesday, March 12, 2014

  Actual Average (KLCH) Record (KLCH)
Temperature  
Mean Temperature 58 °F -  
Max Temperature 68 °F 71 °F 90 °F (1913)
Min Temperature 47 °F 54 °F 30 °F (1948)
Degree Days  
Heating Degree Days 8    
Growing Degree Days 8 (Base 50)    
Moisture  
Dew Point 47 °F    
Average Humidity 65    
Maximum Humidity 99    
Minimum Humidity 35    
Precipitation  
Precipitation 0.00 in - - ()
Sea Level Pressure  
Sea Level Pressure 29.97 in    
Wind  
Wind Speed 12 mph (NW)    
Max Wind Speed 24 mph    
Max Gust Speed 32 mph    
Visibility 9 miles    
Events      
Averages and records for this station are not official NWS values.
T = Trace of Precipitation, MM = Missing Value Source: NWS Daily Summary

Daily Weather History Graph

Daily Weather History Graph

Search for Another Location

Airport or City:

Trip Planner

Search our weather history database for the weather conditions in past years. The results will help you decide how hot, cold, wet, or windy it might be!

Date:

Astronomy

Mar. 12, 2014 Rise Set
Actual Time 7:26 AM CDT 7:19 PM CDT
Civil Twilight 7:03 AM CDT 7:43 PM CDT
Nautical Twilight 6:35 AM CDT 8:11 PM CDT
Astronomical Twilight 6:07 AM CDT 8:39 PM CDT
Moon 4:02 PM CDT (3/12) 4:46 AM CDT (3/12)
Length of Visible Light 12h 40m
Length of Day
11h 53m
Waxing Gibbous, 85% of the Moon is Illuminated
Mar 12
Waxing Gibbous
Mar 16
Full
Mar 23
Last Quarter
Mar 30
New
Apr 7
First Quarter

Hourly Weather History & Observations

Time (CDT) Temp. Dew Point Humidity Pressure Visibility Wind Dir Wind Speed Gust Speed Precip Events Conditions
12:15 AM 61.7 °F 61.0 °F 97% 29.75 in 10.0 mi SSW 8.1 mph - N/A   Overcast
12:35 AM 61.9 °F 61.0 °F 97% 29.75 in 10.0 mi SW 11.5 mph 16.1 mph N/A   Overcast
12:55 AM 62.1 °F 61.0 °F 96% 29.75 in 10.0 mi SW 9.2 mph - N/A   Overcast
1:15 AM 62.2 °F 61.0 °F 96% 29.75 in 10.0 mi SW 13.8 mph 17.3 mph N/A   Overcast
1:35 AM 61.9 °F 60.4 °F 95% 29.75 in 10.0 mi SW 17.3 mph 21.9 mph N/A   Overcast
1:55 AM 61.9 °F 60.4 °F 95% 29.75 in 10.0 mi SW 9.2 mph 12.7 mph N/A   Overcast
2:15 AM 61.7 °F 60.3 °F 95% 29.75 in 10.0 mi SW 11.5 mph 19.6 mph N/A   Overcast
2:35 AM 61.2 °F 59.9 °F 96% 29.75 in 10.0 mi SW 13.8 mph - N/A   Overcast
2:55 AM 61.0 °F 60.1 °F 97% 29.75 in 7.0 mi SW 8.1 mph - N/A   Overcast
3:15 AM 61.0 °F 60.1 °F 97% 29.75 in 7.0 mi SW 6.9 mph - N/A   Overcast
3:35 AM 60.8 °F 60.1 °F 97% 29.75 in 7.0 mi WSW 5.8 mph - N/A   Overcast
3:55 AM 60.8 °F 60.1 °F 97% 29.75 in 7.0 mi SW 5.8 mph - N/A   Overcast
4:15 AM 61.0 °F 60.3 °F 97% 29.75 in 7.0 mi SW 4.6 mph - N/A   Overcast
4:35 AM 60.8 °F 60.1 °F 97% 29.77 in 7.0 mi WSW 5.8 mph - N/A   Overcast
4:55 AM 61.0 °F 60.1 °F 97% 29.79 in 5.0 mi West 5.8 mph - N/A   Overcast
5:15 AM 61.2 °F 60.4 °F 97% 29.80 in 3.0 mi West 4.6 mph - N/A   Overcast
5:35 AM 61.2 °F 60.8 °F 99% 29.80 in 2.0 mi WSW 4.6 mph - N/A   Overcast
5:55 AM 61.2 °F 61.0 °F 99% 29.80 in 2.5 mi West 3.5 mph - N/A   Overcast
6:15 AM 61.2 °F 61.0 °F 99% 29.83 in 4.0 mi WSW 4.6 mph - N/A   Overcast
6:35 AM 61.3 °F 60.8 °F 98% 29.83 in 5.0 mi West 4.6 mph - N/A   Overcast
6:55 AM 61.3 °F 60.8 °F 98% 29.84 in 5.0 mi West 4.6 mph - N/A   Overcast
7:15 AM 61.5 °F 60.8 °F 97% 29.85 in 5.0 mi West 4.6 mph - N/A   Overcast
7:35 AM 61.5 °F 60.8 °F 97% 29.86 in 5.0 mi WNW 4.6 mph - N/A   Overcast
7:55 AM 61.5 °F 60.3 °F 96% 29.88 in 5.0 mi WNW 10.4 mph 17.3 mph N/A   Overcast
8:15 AM 61.7 °F 59.0 °F 91% 29.90 in 10.0 mi NNW 12.7 mph 20.7 mph N/A   Overcast
8:35 AM 60.8 °F 54.7 °F 80% 29.91 in 10.0 mi NW 20.7 mph 27.6 mph N/A   Overcast
8:55 AM 59.5 °F 47.1 °F 63% 29.93 in 10.0 mi NNW 18.4 mph 25.3 mph N/A   Mostly Cloudy
9:15 AM 60.8 °F 46.9 °F 60% 29.94 in 10.0 mi NNW 18.4 mph 26.5 mph N/A   Scattered Clouds
9:35 AM 61.3 °F 46.9 °F 59% 29.96 in 10.0 mi NNW 21.9 mph 28.8 mph N/A   Clear
9:55 AM 61.7 °F 46.0 °F 56% 29.97 in 10.0 mi NNW 19.6 mph 28.8 mph N/A   Clear
10:15 AM 62.1 °F 45.9 °F 55% 29.98 in 10.0 mi North 16.1 mph 28.8 mph N/A   Clear
10:35 AM 62.6 °F 45.7 °F 54% 29.98 in 10.0 mi NNW 18.4 mph 27.6 mph N/A   Clear
10:55 AM 63.5 °F 45.3 °F 52% 29.99 in 10.0 mi NNW 21.9 mph 26.5 mph N/A   Clear
11:15 AM 64.2 °F 46.0 °F 52% 30.00 in 10.0 mi NNW 16.1 mph 24.2 mph N/A   Clear
11:35 AM 63.5 °F 45.1 °F 51% 30.01 in 10.0 mi NNW 19.6 mph 28.8 mph N/A   Clear
11:55 AM 63.7 °F 44.4 °F 50% 30.02 in 10.0 mi North 19.6 mph 28.8 mph N/A   Clear
12:15 PM 65.1 °F 45.3 °F 49% 30.03 in 10.0 mi North 16.1 mph 25.3 mph N/A   Clear
12:35 PM 65.5 °F 45.1 °F 48% 30.03 in 10.0 mi NNW 17.3 mph 26.5 mph N/A   Clear
12:55 PM 65.7 °F 45.1 °F 47% 30.03 in 10.0 mi North 20.7 mph 26.5 mph N/A   Clear
1:15 PM 65.7 °F 44.8 °F 47% 30.03 in 10.0 mi NNW 18.4 mph 27.6 mph N/A   Clear
1:35 PM 66.4 °F 45.1 °F 46% 30.03 in 10.0 mi NW 19.6 mph 27.6 mph N/A   Clear
1:55 PM 66.7 °F 43.9 °F 44% 30.02 in 10.0 mi North 21.9 mph 27.6 mph N/A   Clear
2:15 PM 67.1 °F 44.4 °F 44% 30.02 in 10.0 mi NNW 19.6 mph 25.3 mph N/A   Clear
2:35 PM 67.5 °F 44.2 °F 43% 30.02 in 10.0 mi North 21.9 mph 27.6 mph N/A   Clear
2:55 PM 68.2 °F 44.2 °F 42% 30.02 in 10.0 mi NNW 20.7 mph 28.8 mph N/A   Clear
3:15 PM 68.2 °F 43.2 °F 40% 30.02 in 10.0 mi NNW 21.9 mph 32.2 mph N/A   Clear
3:35 PM 68.4 °F 43.0 °F 40% 30.02 in 10.0 mi North 15.0 mph 26.5 mph N/A   Clear
3:55 PM 68.4 °F 43.0 °F 40% 30.03 in 10.0 mi NNW 21.9 mph 27.6 mph N/A   Clear
4:15 PM 67.8 °F 41.4 °F 38% 30.03 in 10.0 mi NNW 19.6 mph 29.9 mph N/A   Clear
4:35 PM 68.0 °F 41.2 °F 38% 30.03 in 10.0 mi NNW 20.7 mph 27.6 mph N/A   Clear
4:55 PM 67.3 °F 39.7 °F 36% 30.03 in 10.0 mi NNW 21.9 mph 28.8 mph N/A   Clear
5:15 PM 66.4 °F 38.8 °F 36% 30.03 in 10.0 mi NNW 24.2 mph 29.9 mph N/A   Clear
5:35 PM 65.8 °F 38.1 °F 36% 30.04 in 10.0 mi NNW 21.9 mph 28.8 mph N/A   Clear
5:55 PM 65.5 °F 38.1 °F 36% 30.04 in 10.0 mi North 19.6 mph 24.2 mph N/A   Clear
6:15 PM 64.6 °F 36.7 °F 36% 30.05 in 10.0 mi North 18.4 mph 25.3 mph N/A   Clear
6:35 PM 63.5 °F 35.4 °F 35% 30.06 in 10.0 mi NNW 20.7 mph 28.8 mph N/A   Clear
6:55 PM 62.4 °F 34.2 °F 35% 30.07 in 10.0 mi North 18.4 mph 23.0 mph N/A   Clear
7:15 PM 61.0 °F 32.9 °F 35% 30.08 in 10.0 mi NNW 17.3 mph 21.9 mph N/A   Clear
7:35 PM 59.4 °F 32.9 °F 37% 30.09 in 10.0 mi NNW 12.7 mph 17.3 mph N/A   Clear
7:55 PM 59.0 °F 32.5 °F 37% 30.11 in 10.0 mi NNW 13.8 mph 19.6 mph N/A   Clear
8:15 PM 57.9 °F 32.9 °F 39% 30.12 in 10.0 mi North 9.2 mph - N/A   Clear
8:35 PM 55.0 °F 34.0 °F 45% 30.14 in 10.0 mi North 5.8 mph - N/A   Clear
8:55 PM 53.1 °F 35.1 °F 50% 30.15 in 10.0 mi NNW 6.9 mph - N/A   Clear
9:15 PM 54.7 °F 34.0 °F 46% 30.16 in 10.0 mi NNW 8.1 mph - N/A   Clear
9:35 PM 52.9 °F 34.2 °F 49% 30.17 in 10.0 mi NNW 8.1 mph - N/A   Clear
9:55 PM 51.4 °F 34.2 °F 52% 30.18 in 10.0 mi NNW 5.8 mph - N/A   Clear
10:15 PM 50.9 °F 34.2 °F 53% 30.19 in 10.0 mi NNW 5.8 mph - N/A   Clear
10:35 PM 50.0 °F 34.5 °F 55% 30.20 in 10.0 mi NNW 4.6 mph - N/A   Clear
10:55 PM 48.9 °F 35.6 °F 60% 30.20 in 10.0 mi NW 6.9 mph - N/A   Clear
11:15 PM 47.7 °F 35.4 °F 63% 30.21 in 10.0 mi NW 4.6 mph - N/A   Clear
11:35 PM 48.4 °F 34.5 °F 59% 30.22 in 10.0 mi NW 4.6 mph - N/A   Clear
11:55 PM 47.1 °F 35.6 °F 64% 30.22 in 10.0 mi NNW 5.8 mph - N/A   Clear